TSC59 CYHZ-TXKF

Flight info

Callsign TSC59
Flight time 1h 54m
Altitude 38000
Route KEVLU DCT ELERI/M079F380 DCT AVAST DCT ANVER MOMOM1
Aircraft A20N/M-SDE2E3FGHIRWXY/LB1

Departure

Time 2026-04-26 16:30
Airport Halifax / Stanfield International Airport (CYHZ)

Arrival

Time 2026-04-26 18:24
Airport L.F. Wade International Airport (TXKF)
Time Latitude Longitude Altitude Speed Heading
2026-04-26 16:03 44.88852 -63.51433 456 ft 0 kts 262°
2026-04-26 16:18 44.88852 -63.51431 456 ft 2 kts 262°
2026-04-26 16:18 44.88857 -63.51388 454 ft 2 kts 262°
2026-04-26 16:19 44.88861 -63.51344 456 ft 2 kts 262°
2026-04-26 16:19 44.88862 -63.51331 456 ft 0 kts 262°
2026-04-26 16:22 44.88862 -63.51332 456 ft 0 kts 256°
2026-04-26 16:23 44.88860 -63.51333 456 ft 0 kts 243°
2026-04-26 16:23 44.88857 -63.51335 456 ft 0 kts 219°
2026-04-26 16:23 44.88850 -63.51335 456 ft 2 kts 185°
2026-04-26 16:23 44.88827 -63.51322 456 ft 6 kts 151°
2026-04-26 16:24 44.88780 -63.51301 456 ft 9 kts 174°
2026-04-26 16:24 44.88703 -63.51277 457 ft 13 kts 161°
2026-04-26 16:24 44.88599 -63.51233 457 ft 18 kts 169°
2026-04-26 16:24 44.88490 -63.51214 457 ft 0 kts 172°
2026-04-26 16:25 44.88476 -63.51211 457 ft 4 kts 173°
2026-04-26 16:25 44.88434 -63.51198 457 ft 8 kts 162°
2026-04-26 16:25 44.88378 -63.51135 455 ft 12 kts 123°
2026-04-26 16:25 44.88324 -63.51010 457 ft 17 kts 112°
2026-04-26 16:26 44.88324 -63.50832 458 ft 19 kts 82°
2026-04-26 16:26 44.88337 -63.50703 457 ft 21 kts 84°
2026-04-26 16:26 44.88359 -63.50401 457 ft 25 kts 83°
2026-04-26 16:26 44.88367 -63.50163 458 ft 24 kts 108°
2026-04-26 16:27 44.88270 -63.49953 459 ft 27 kts 128°
2026-04-26 16:27 44.88154 -63.49727 460 ft 30 kts 124°
2026-04-26 16:27 44.88089 -63.49495 461 ft 19 kts 80°
2026-04-26 16:27 44.88099 -63.49438 461 ft 3 kts 72°
2026-04-26 16:28 44.88117 -63.49392 461 ft 8 kts 52°
2026-04-26 16:28 44.88170 -63.49364 461 ft 0 kts 350°
2026-04-26 16:28 44.88176 -63.49366 461 ft 2 kts 347°
2026-04-26 16:28 44.88195 -63.49386 461 ft 4 kts 317°
2026-04-26 16:29 44.88206 -63.49408 461 ft 1 kts 298°
2026-04-26 16:29 44.88279 -63.49582 460 ft 59 kts 304°
2026-04-26 16:29 44.88677 -63.50348 457 ft 131 kts 302°
2026-04-26 16:29 44.89290 -63.51536 719 ft 156 kts 312°
2026-04-26 16:30 44.89949 -63.52638 1904 ft 137 kts 316°
2026-04-26 16:30 44.90587 -63.53564 2943 ft 126 kts 321°
2026-04-26 16:30 44.91202 -63.54348 3780 ft 114 kts 327°
2026-04-26 16:30 44.91820 -63.55053 4333 ft 121 kts 328°
2026-04-26 16:31 44.92564 -63.55968 4344 ft 170 kts 326°
2026-04-26 16:31 44.93549 -63.57116 4847 ft 196 kts 320°
2026-04-26 16:31 44.94201 -63.58859 5745 ft 215 kts 280°
2026-04-26 16:31 44.93804 -63.60962 6548 ft 238 kts 234°
2026-04-26 16:32 44.92479 -63.62392 7515 ft 239 kts 206°
2026-04-26 16:32 44.91437 -63.62955 8281 ft 236 kts 196°
2026-04-26 16:32 44.89231 -63.63697 9271 ft 257 kts 195°
2026-04-26 16:32 44.87473 -63.64456 9943 ft 274 kts 206°
2026-04-26 16:33 44.85802 -63.66030 9940 ft 311 kts 224°
2026-04-26 16:33 44.84124 -63.68325 9540 ft 360 kts 228°
2026-04-26 16:33 44.82240 -63.70968 9146 ft 404 kts 226°
2026-04-26 16:33 44.80092 -63.73779 8793 ft 427 kts 224°
2026-04-26 16:34 44.77964 -63.76462 9311 ft 383 kts 223°
2026-04-26 16:34 44.76099 -63.78761 10361 ft 335 kts 223°
2026-04-26 16:34 44.74346 -63.80809 10491 ft 329 kts 222°
2026-04-26 16:34 44.72558 -63.82870 10784 ft 348 kts 222°
2026-04-26 16:35 44.70634 -63.85101 11450 ft 352 kts 222°
2026-04-26 16:35 44.68759 -63.87294 12450 ft 348 kts 222°
2026-04-26 16:35 44.66926 -63.89440 13628 ft 339 kts 222°
2026-04-26 16:35 44.65117 -63.91563 14421 ft 344 kts 223°
2026-04-26 16:36 44.63231 -63.93787 14655 ft 363 kts 223°
2026-04-26 16:36 44.61271 -63.96097 15188 ft 370 kts 223°
2026-04-26 16:36 44.59294 -63.98419 15925 ft 372 kts 223°
2026-04-26 16:36 44.57299 -64.00760 16609 ft 375 kts 223°
2026-04-26 16:37 44.55285 -64.03120 17285 ft 378 kts 223°
2026-04-26 16:37 44.53262 -64.05491 18032 ft 379 kts 223°
2026-04-26 16:37 44.51237 -64.07862 18672 ft 382 kts 223°
2026-04-26 16:37 44.49190 -64.10259 19238 ft 386 kts 223°
2026-04-26 16:38 44.47121 -64.12678 19790 ft 389 kts 222°
2026-04-26 16:38 44.45031 -64.15114 20355 ft 393 kts 221°
2026-04-26 16:38 44.42716 -64.17199 20892 ft 400 kts 207°
2026-04-26 16:38 44.40077 -64.18481 21435 ft 406 kts 193°
2026-04-26 16:39 44.37256 -64.18946 21960 ft 411 kts 186°
2026-04-26 16:39 44.34387 -64.19253 22441 ft 415 kts 186°
2026-04-26 16:39 44.31494 -64.19572 22967 ft 419 kts 186°
2026-04-26 16:39 44.28584 -64.19900 23504 ft 422 kts 186°
2026-04-26 16:40 44.25644 -64.20236 23966 ft 425 kts 187°
2026-04-26 16:40 44.22680 -64.20576 24403 ft 428 kts 187°
2026-04-26 16:40 44.19705 -64.20917 24860 ft 430 kts 187°
2026-04-26 16:40 44.16712 -64.21257 25279 ft 433 kts 188°
2026-04-26 16:41 44.13718 -64.21597 25709 ft 435 kts 188°
2026-04-26 16:41 44.10690 -64.21944 26146 ft 437 kts 188°
2026-04-26 16:41 44.07649 -64.22292 26560 ft 439 kts 188°
2026-04-26 16:41 44.04593 -64.22642 26972 ft 442 kts 189°
2026-04-26 16:42 44.01522 -64.22991 27369 ft 444 kts 189°
2026-04-26 16:42 43.98438 -64.23342 27764 ft 446 kts 189°
2026-04-26 16:42 43.95344 -64.23691 28174 ft 446 kts 189°
2026-04-26 16:42 43.92250 -64.24041 28554 ft 448 kts 189°
2026-04-26 16:43 43.89135 -64.24395 28886 ft 450 kts 190°
2026-04-26 16:43 43.86002 -64.24751 29226 ft 452 kts 190°
2026-04-26 16:43 43.82859 -64.25107 29561 ft 454 kts 190°
2026-04-26 16:43 43.79705 -64.25464 29887 ft 456 kts 190°
2026-04-26 16:44 43.76535 -64.25821 30209 ft 458 kts 191°
2026-04-26 16:44 43.73345 -64.26182 30451 ft 461 kts 191°
2026-04-26 16:44 43.70145 -64.26541 30758 ft 462 kts 191°
2026-04-26 16:44 43.66936 -64.26901 31036 ft 464 kts 191°
2026-04-26 16:45 43.63715 -64.27263 31329 ft 465 kts 191°
2026-04-26 16:45 43.60490 -64.27624 31682 ft 464 kts 191°
2026-04-26 16:45 43.57273 -64.27983 32052 ft 463 kts 192°
2026-04-26 16:45 43.54089 -64.28334 32576 ft 458 kts 192°
2026-04-26 16:46 43.50920 -64.28686 32944 ft 457 kts 192°
2026-04-26 16:46 43.47755 -64.29042 33278 ft 456 kts 192°
2026-04-26 16:46 43.44595 -64.29398 33616 ft 455 kts 192°
2026-04-26 16:46 43.41439 -64.29752 33951 ft 454 kts 192°
2026-04-26 16:47 43.38294 -64.30103 34246 ft 453 kts 193°
2026-04-26 16:47 43.35162 -64.30453 34552 ft 451 kts 192°
2026-04-26 16:47 43.32032 -64.30802 34770 ft 452 kts 192°
2026-04-26 16:47 43.28903 -64.31151 34954 ft 453 kts 192°
2026-04-26 16:48 43.25751 -64.31504 35119 ft 454 kts 192°
2026-04-26 16:48 43.22601 -64.31854 35339 ft 454 kts 192°
2026-04-26 16:48 43.19450 -64.32205 35537 ft 454 kts 192°
2026-04-26 16:48 43.16305 -64.32552 35810 ft 452 kts 192°
2026-04-26 16:49 43.13214 -64.32894 36017 ft 452 kts 192°
2026-04-26 16:49 43.10033 -64.33248 36184 ft 453 kts 192°
2026-04-26 16:49 43.06906 -64.33644 36351 ft 449 kts 197°
2026-04-26 16:49 43.03967 -64.34675 36491 ft 438 kts 208°
2026-04-26 16:50 43.01130 -64.36281 36633 ft 435 kts 211°
2026-04-26 16:50 42.98400 -64.37902 36876 ft 433 kts 210°
2026-04-26 16:50 42.95608 -64.39454 37075 ft 434 kts 209°
2026-04-26 16:50 42.92779 -64.40916 37195 ft 437 kts 207°
2026-04-26 16:51 42.89914 -64.42321 37330 ft 438 kts 207°
2026-04-26 16:51 42.87035 -64.43697 37464 ft 439 kts 206°
2026-04-26 16:51 42.84148 -64.45063 37593 ft 439 kts 206°
2026-04-26 16:51 42.81257 -64.46426 37734 ft 439 kts 206°
2026-04-26 16:52 42.78374 -64.47786 37913 ft 438 kts 206°
2026-04-26 16:52 42.77403 -64.48245 37947 ft 439 kts 206°
2026-04-26 16:52 42.73582 -64.50049 38078 ft 440 kts 206°
2026-04-26 16:52 42.70688 -64.51415 38096 ft 440 kts 206°
2026-04-26 16:53 42.64916 -64.54132 38081 ft 438 kts 206°
2026-04-26 16:53 42.59145 -64.56847 38101 ft 440 kts 206°
2026-04-26 16:54 42.53377 -64.59553 38101 ft 440 kts 206°
2026-04-26 16:54 42.47594 -64.62262 38074 ft 440 kts 206°
2026-04-26 16:55 42.41833 -64.64953 38100 ft 437 kts 206°
2026-04-26 16:55 42.36074 -64.67641 38100 ft 438 kts 206°
2026-04-26 16:56 42.27439 -64.71659 38098 ft 436 kts 206°
2026-04-26 16:57 42.21709 -64.74320 38102 ft 436 kts 206°
2026-04-26 16:57 42.13094 -64.78311 38065 ft 436 kts 206°
2026-04-26 16:58 42.08375 -64.80487 38104 ft 429 kts 206°
2026-04-26 16:59 41.98910 -64.84856 38103 ft 431 kts 206°
2026-04-26 17:00 41.87167 -64.88653 38106 ft 445 kts 193°
2026-04-26 17:00 41.77925 -64.89832 38087 ft 445 kts 193°
2026-04-26 17:01 41.71780 -64.90644 38102 ft 443 kts 193°
2026-04-26 17:01 41.65676 -64.91455 38100 ft 444 kts 193°
2026-04-26 17:02 41.59497 -64.92273 38100 ft 444 kts 193°
2026-04-26 17:02 41.53388 -64.93079 38102 ft 444 kts 193°
2026-04-26 17:03 41.47204 -64.93893 38100 ft 444 kts 193°
2026-04-26 17:03 41.41096 -64.94695 38099 ft 444 kts 193°
2026-04-26 17:04 41.34938 -64.95504 38103 ft 445 kts 193°
2026-04-26 17:04 41.28776 -64.96310 38100 ft 445 kts 193°
2026-04-26 17:05 41.22615 -64.97115 38102 ft 445 kts 193°
2026-04-26 17:05 41.16482 -64.97912 38100 ft 443 kts 193°
2026-04-26 17:06 41.10359 -64.98704 38101 ft 441 kts 193°
2026-04-26 17:06 41.04246 -64.99501 38098 ft 442 kts 193°
2026-04-26 17:07 40.98120 -65.00299 38100 ft 443 kts 194°
2026-04-26 17:07 40.91986 -65.01095 38100 ft 443 kts 194°
2026-04-26 17:08 40.85884 -65.01883 38097 ft 442 kts 194°
2026-04-26 17:08 40.79751 -65.02674 38096 ft 444 kts 194°
2026-04-26 17:09 40.74635 -65.03333 38094 ft 444 kts 194°
2026-04-26 17:09 40.67517 -65.04248 38095 ft 447 kts 194°
2026-04-26 17:10 40.61272 -65.05053 38092 ft 454 kts 194°
2026-04-26 17:10 40.54945 -65.05863 38091 ft 460 kts 194°
2026-04-26 17:11 40.48581 -65.06675 38091 ft 464 kts 193°
2026-04-26 17:11 40.42128 -65.07496 38092 ft 467 kts 193°
2026-04-26 17:12 40.32396 -65.08732 38087 ft 470 kts 193°
2026-04-26 17:13 40.22614 -65.09971 38079 ft 470 kts 194°
2026-04-26 17:14 40.12853 -65.11203 38085 ft 469 kts 194°
2026-04-26 17:14 40.03114 -65.12432 38088 ft 468 kts 194°
2026-04-26 17:15 39.93403 -65.13653 38080 ft 468 kts 194°
2026-04-26 17:16 39.86921 -65.14466 38083 ft 468 kts 194°
2026-04-26 17:16 39.80444 -65.15278 38081 ft 468 kts 194°
2026-04-26 17:17 39.73963 -65.16088 38079 ft 468 kts 194°
2026-04-26 17:17 39.67476 -65.16897 38075 ft 468 kts 194°
2026-04-26 17:18 39.60991 -65.17705 38075 ft 468 kts 193°
2026-04-26 17:18 39.54511 -65.18509 38076 ft 468 kts 193°
2026-04-26 17:19 39.44779 -65.19716 38050 ft 468 kts 193°
2026-04-26 17:19 39.38302 -65.20517 38073 ft 467 kts 193°
2026-04-26 17:20 39.32922 -65.21181 38070 ft 467 kts 193°
2026-04-26 17:20 39.25413 -65.22106 38073 ft 466 kts 193°
2026-04-26 17:21 39.18967 -65.22899 38072 ft 464 kts 193°
2026-04-26 17:21 39.12538 -65.23688 38073 ft 464 kts 193°
2026-04-26 17:22 39.06120 -65.24475 38073 ft 463 kts 193°
2026-04-26 17:22 38.99718 -65.25256 38070 ft 461 kts 193°
2026-04-26 17:23 38.93339 -65.26036 38070 ft 460 kts 193°
2026-04-26 17:23 38.86969 -65.26814 38070 ft 460 kts 193°
2026-04-26 17:24 38.80606 -65.27584 38068 ft 458 kts 194°
2026-04-26 17:24 38.74264 -65.28356 38067 ft 457 kts 194°
2026-04-26 17:25 38.67932 -65.29125 38068 ft 457 kts 194°
2026-04-26 17:25 38.61617 -65.29890 38067 ft 456 kts 194°
2026-04-26 17:26 38.55300 -65.30653 38062 ft 455 kts 194°
2026-04-26 17:26 38.49003 -65.31412 38062 ft 455 kts 194°
2026-04-26 17:27 38.42703 -65.32171 38036 ft 454 kts 194°
2026-04-26 17:27 38.36455 -65.32921 38059 ft 454 kts 194°
2026-04-26 17:28 38.30172 -65.33675 38056 ft 453 kts 194°
2026-04-26 17:28 38.23897 -65.34427 38056 ft 453 kts 194°
2026-04-26 17:29 38.18639 -65.35055 38049 ft 452 kts 194°
2026-04-26 17:29 38.11359 -65.35924 38051 ft 452 kts 194°
2026-04-26 17:30 38.05097 -65.36670 38048 ft 452 kts 194°
2026-04-26 17:30 37.98835 -65.37415 38048 ft 452 kts 194°
2026-04-26 17:31 37.92574 -65.38158 38048 ft 452 kts 194°
2026-04-26 17:31 37.86315 -65.38900 38045 ft 452 kts 194°
2026-04-26 17:32 37.80058 -65.39641 38014 ft 452 kts 194°
2026-04-26 17:32 37.73794 -65.40381 38039 ft 452 kts 194°
2026-04-26 17:33 37.67524 -65.41120 38040 ft 453 kts 194°
2026-04-26 17:34 37.58103 -65.42229 38013 ft 453 kts 194°
2026-04-26 17:34 37.51823 -65.42966 38034 ft 453 kts 194°
2026-04-26 17:35 37.45541 -65.43702 38028 ft 453 kts 194°
2026-04-26 17:35 37.39263 -65.44437 38031 ft 454 kts 194°
2026-04-26 17:36 37.32983 -65.45171 38027 ft 453 kts 193°
2026-04-26 17:36 37.26747 -65.45898 38025 ft 453 kts 193°
2026-04-26 17:37 37.20470 -65.46629 38029 ft 453 kts 193°
2026-04-26 17:37 37.14195 -65.47359 38030 ft 452 kts 193°
2026-04-26 17:38 37.04757 -65.48455 38024 ft 452 kts 193°
2026-04-26 17:38 36.98487 -65.49181 38021 ft 452 kts 193°
2026-04-26 17:39 36.92259 -65.49901 38023 ft 452 kts 193°
2026-04-26 17:39 36.85996 -65.50624 38019 ft 452 kts 193°
2026-04-26 17:40 36.81796 -65.51108 38018 ft 453 kts 193°
2026-04-26 17:40 36.74463 -65.51951 38015 ft 453 kts 193°
2026-04-26 17:41 36.68189 -65.52674 38017 ft 453 kts 193°
2026-04-26 17:41 36.61913 -65.53393 38016 ft 454 kts 193°
2026-04-26 17:42 36.55668 -65.54107 38015 ft 454 kts 193°
2026-04-26 17:42 36.49369 -65.54827 38014 ft 454 kts 193°
2026-04-26 17:43 36.43066 -65.55546 38016 ft 455 kts 193°
2026-04-26 17:43 36.36754 -65.56265 38013 ft 456 kts 193°
2026-04-26 17:44 36.30441 -65.56982 38016 ft 456 kts 193°
2026-04-26 17:44 36.24129 -65.57699 38013 ft 455 kts 192°
2026-04-26 17:45 36.17818 -65.58414 38013 ft 455 kts 192°
2026-04-26 17:45 36.11506 -65.59128 38013 ft 455 kts 192°
2026-04-26 17:46 36.05193 -65.59842 38005 ft 455 kts 192°
2026-04-26 17:46 35.98881 -65.60554 38010 ft 456 kts 192°
2026-04-26 17:47 35.93632 -65.61145 38010 ft 456 kts 192°
2026-04-26 17:47 35.86251 -65.61975 38002 ft 456 kts 192°
2026-04-26 17:48 35.79943 -65.62683 38002 ft 456 kts 192°
2026-04-26 17:48 35.73625 -65.63391 38002 ft 456 kts 192°
2026-04-26 17:49 35.67319 -65.64097 38002 ft 456 kts 192°
2026-04-26 17:49 35.61112 -65.64791 37997 ft 456 kts 192°
2026-04-26 17:50 35.54798 -65.65495 37999 ft 455 kts 192°
2026-04-26 17:50 35.48488 -65.66197 38003 ft 455 kts 192°
2026-04-26 17:51 35.42181 -65.66899 38000 ft 455 kts 192°
2026-04-26 17:51 35.35877 -65.67601 38000 ft 454 kts 192°
2026-04-26 17:52 35.29594 -65.68296 38008 ft 455 kts 191°
2026-04-26 17:52 35.23206 -65.68277 37999 ft 464 kts 181°
2026-04-26 17:53 35.16783 -65.67055 37975 ft 469 kts 176°
2026-04-26 17:54 35.07176 -65.65037 37986 ft 456 kts 177°
2026-04-26 17:54 35.04110 -65.64392 37992 ft 439 kts 177°
2026-04-26 17:54 35.01144 -65.63772 37993 ft 428 kts 178°
2026-04-26 17:55 34.95213 -65.62562 38003 ft 436 kts 178°
2026-04-26 17:55 34.89196 -65.61329 38001 ft 440 kts 177°
2026-04-26 17:56 34.83189 -65.60089 38002 ft 441 kts 177°
2026-04-26 17:57 34.71112 -65.57604 38002 ft 440 kts 177°
2026-04-26 17:57 34.65065 -65.56364 38001 ft 442 kts 177°
2026-04-26 17:58 34.52942 -65.53881 38001 ft 442 kts 177°
2026-04-26 17:59 34.43847 -65.52024 38005 ft 442 kts 177°
2026-04-26 17:59 34.37773 -65.50787 38004 ft 443 kts 177°
2026-04-26 18:00 34.31703 -65.49551 38008 ft 442 kts 177°
2026-04-26 18:00 34.25633 -65.48318 38010 ft 443 kts 177°
2026-04-26 18:01 34.19558 -65.47085 38007 ft 443 kts 177°
2026-04-26 18:01 34.13479 -65.45854 38008 ft 443 kts 176°
2026-04-26 18:02 34.08430 -65.44832 38007 ft 443 kts 176°
2026-04-26 18:02 34.04376 -65.44011 37832 ft 441 kts 176°
2026-04-26 18:02 34.01348 -65.43400 37206 ft 442 kts 176°
2026-04-26 18:03 33.98289 -65.42787 36285 ft 449 kts 176°
2026-04-26 18:03 33.95178 -65.42164 35206 ft 458 kts 175°
2026-04-26 18:03 33.92001 -65.41528 34176 ft 466 kts 175°
2026-04-26 18:03 33.88789 -65.40881 33173 ft 469 kts 175°
2026-04-26 18:04 33.85571 -65.40232 32234 ft 471 kts 174°
2026-04-26 18:04 33.82368 -65.39586 31300 ft 473 kts 174°
2026-04-26 18:04 33.79074 -65.38924 30390 ft 474 kts 174°
2026-04-26 18:05 33.72601 -65.37624 28580 ft 472 kts 174°
2026-04-26 18:05 33.69379 -65.36979 27888 ft 466 kts 174°
2026-04-26 18:05 33.66200 -65.36351 27236 ft 460 kts 174°
2026-04-26 18:05 33.63059 -65.35733 26574 ft 455 kts 174°
2026-04-26 18:06 33.59946 -65.35121 25902 ft 451 kts 174°
2026-04-26 18:06 33.56865 -65.34515 25261 ft 446 kts 174°
2026-04-26 18:06 33.53815 -65.33916 24642 ft 442 kts 174°
2026-04-26 18:06 33.50794 -65.33322 24020 ft 438 kts 174°
2026-04-26 18:07 33.47801 -65.32734 23372 ft 434 kts 174°
2026-04-26 18:07 33.44842 -65.32153 22658 ft 430 kts 174°
2026-04-26 18:07 33.41906 -65.31577 21977 ft 425 kts 174°
2026-04-26 18:07 33.39935 -65.31191 21515 ft 423 kts 174°
2026-04-26 18:08 33.36109 -65.30441 20638 ft 418 kts 174°
2026-04-26 18:08 33.33253 -65.29882 19981 ft 415 kts 174°
2026-04-26 18:08 33.30414 -65.29328 19330 ft 412 kts 174°
2026-04-26 18:08 33.27593 -65.28776 18736 ft 409 kts 174°
2026-04-26 18:09 33.24795 -65.28229 18077 ft 406 kts 174°
2026-04-26 18:09 33.22024 -65.27688 17436 ft 401 kts 174°
2026-04-26 18:09 33.19290 -65.27155 16818 ft 396 kts 174°
2026-04-26 18:09 33.16582 -65.26627 16157 ft 392 kts 174°
2026-04-26 18:10 33.13903 -65.26104 15548 ft 389 kts 174°
2026-04-26 18:10 33.11244 -65.25587 14936 ft 385 kts 173°
2026-04-26 18:10 33.08608 -65.25074 14345 ft 382 kts 173°
2026-04-26 18:10 33.06000 -65.24483 13742 ft 381 kts 168°
2026-04-26 18:11 33.03488 -65.23530 13143 ft 378 kts 163°
2026-04-26 18:11 33.01020 -65.22513 12557 ft 373 kts 163°
2026-04-26 18:11 32.98577 -65.21515 11977 ft 369 kts 163°
2026-04-26 18:11 32.96157 -65.20529 11413 ft 365 kts 163°
2026-04-26 18:12 32.93762 -65.19555 10863 ft 362 kts 163°
2026-04-26 18:12 32.91410 -65.18600 10526 ft 352 kts 163°
2026-04-26 18:12 32.89142 -65.17676 10384 ft 337 kts 163°
2026-04-26 18:12 32.86972 -65.16793 10254 ft 323 kts 163°
2026-04-26 18:13 32.84894 -65.15948 10132 ft 309 kts 163°
2026-04-26 18:13 32.82901 -65.15139 10025 ft 296 kts 163°
2026-04-26 18:13 32.80968 -65.14355 9681 ft 292 kts 163°
2026-04-26 18:13 32.79701 -65.13842 9405 ft 291 kts 164°
2026-04-26 18:14 32.77146 -65.12810 8826 ft 289 kts 163°
2026-04-26 18:14 32.75247 -65.12042 8408 ft 288 kts 163°
2026-04-26 18:14 32.73355 -65.11278 8021 ft 286 kts 163°
2026-04-26 18:14 32.71478 -65.10518 7635 ft 285 kts 163°
2026-04-26 18:15 32.69605 -65.09761 7235 ft 283 kts 163°
2026-04-26 18:15 32.67744 -65.09006 6862 ft 282 kts 163°
2026-04-26 18:15 32.65894 -65.08259 6469 ft 280 kts 163°
2026-04-26 18:15 32.64050 -65.07516 6096 ft 278 kts 163°
2026-04-26 18:16 32.62230 -65.06782 5775 ft 275 kts 162°
2026-04-26 18:16 32.58665 -65.05342 5152 ft 267 kts 163°
2026-04-26 18:16 32.56894 -65.04629 4845 ft 269 kts 163°
2026-04-26 18:17 32.55129 -65.03917 4526 ft 266 kts 163°
2026-04-26 18:17 32.53395 -65.03220 4227 ft 261 kts 163°
2026-04-26 18:17 32.51688 -65.02532 3929 ft 258 kts 163°
2026-04-26 18:17 32.49994 -65.01851 3626 ft 258 kts 163°
2026-04-26 18:18 32.48301 -65.01171 3332 ft 255 kts 163°
2026-04-26 18:18 32.46633 -65.00499 3069 ft 250 kts 162°
2026-04-26 18:18 32.45024 -64.99853 3000 ft 239 kts 163°
2026-04-26 18:18 32.43513 -64.99245 2980 ft 225 kts 162°
2026-04-26 18:19 32.42193 -64.98377 2982 ft 214 kts 138°
2026-04-26 18:19 32.41383 -64.96841 2978 ft 225 kts 107°
2026-04-26 18:19 32.41065 -64.95059 2977 ft 223 kts 103°
2026-04-26 18:19 32.40771 -64.93260 2983 ft 224 kts 103°
2026-04-26 18:20 32.40472 -64.91453 2979 ft 224 kts 103°
2026-04-26 18:20 32.40175 -64.89664 2926 ft 217 kts 103°
2026-04-26 18:20 32.39889 -64.87955 2843 ft 206 kts 104°
2026-04-26 18:20 32.39796 -64.87400 2817 ft 202 kts 104°
2026-04-26 18:21 32.39339 -64.84741 2461 ft 198 kts 104°
2026-04-26 18:21 32.39063 -64.83159 2250 ft 194 kts 104°
2026-04-26 18:21 32.38797 -64.81625 2157 ft 182 kts 104°
2026-04-26 18:21 32.38557 -64.80218 2071 ft 167 kts 104°
2026-04-26 18:22 32.38336 -64.78932 1970 ft 153 kts 105°
2026-04-26 18:22 32.38129 -64.77735 1811 ft 145 kts 105°
2026-04-26 18:22 32.37922 -64.76566 1577 ft 145 kts 105°
2026-04-26 18:22 32.37726 -64.75449 1465 ft 130 kts 105°
2026-04-26 18:23 32.37537 -64.74398 1328 ft 133 kts 106°
2026-04-26 18:23 32.37337 -64.73353 1072 ft 129 kts 103°
2026-04-26 18:23 32.37146 -64.72310 823 ft 129 kts 103°
2026-04-26 18:23 32.36972 -64.71282 528 ft 130 kts 97°
2026-04-26 18:24 32.36827 -64.70227 192 ft 130 kts 102°
2026-04-26 18:24 32.36635 -64.69219 8 ft 121 kts 100°
2026-04-26 18:24 32.36514 -64.68506 6 ft 46 kts 103°
2026-04-26 18:24 32.36475 -64.68294 7 ft 38 kts 103°
2026-04-26 18:25 32.36394 -64.67844 3 ft 73 kts 102°
2026-04-26 18:25 32.36298 -64.67300 3 ft 40 kts 96°
2026-04-26 18:25 32.36319 -64.67029 7 ft 16 kts 69°
2026-04-26 18:25 32.36326 -64.67008 7 ft 5 kts 69°
2026-04-26 18:26 32.36359 -64.66935 6 ft 12 kts 31°
2026-04-26 18:26 32.36381 -64.66939 6 ft 2 kts 292°
2026-04-26 18:26 32.36397 -64.67008 6 ft 15 kts 283°
2026-04-26 18:26 32.36429 -64.67171 5 ft 26 kts 283°
2026-04-26 18:27 32.36460 -64.67324 5 ft 32 kts 277°
2026-04-26 18:27 32.36508 -64.67673 4 ft 46 kts 282°
2026-04-26 18:27 32.36580 -64.68040 5 ft 46 kts 279°
2026-04-26 18:27 32.36638 -64.68409 5 ft 46 kts 282°
2026-04-26 18:28 32.36702 -64.68777 4 ft 46 kts 281°
2026-04-26 18:28 32.36688 -64.68973 4 ft 19 kts 249°
2026-04-26 18:28 32.36630 -64.69124 5 ft 22 kts 245°
2026-04-26 18:28 32.36568 -64.69296 4 ft 24 kts 248°
2026-04-26 18:29 32.36528 -64.69414 5 ft 25 kts 248°
2026-04-26 18:29 32.36522 -64.69429 4 ft 25 kts 248°
2026-04-26 18:29 32.36452 -64.69627 4 ft 27 kts 246°
2026-04-26 18:29 32.36376 -64.69837 4 ft 29 kts 251°
2026-04-26 18:30 32.36435 -64.69990 5 ft 22 kts 315°
2026-04-26 18:30 32.36427 -64.70150 4 ft 22 kts 248°
2026-04-26 18:30 32.36386 -64.70301 4 ft 15 kts 263°
2026-04-26 18:30 32.36378 -64.70335 4 ft 2 kts 246°
2026-04-26 18:31 32.36368 -64.70365 4 ft 6 kts 251°
2026-04-26 18:31 32.36368 -64.70366 4 ft 0 kts 251°